Time,TemperatureF,DewpointF,PressureIn,WindDirection,WindDirectionDegrees,WindSpeedMPH,WindSpeedGustMPH,Humidity,HourlyPrecipIn,Conditions,Clouds,dailyrainin,SoftwareType,DateUTC
2013-01-25 00:02:00,47.1,39.6,29.58,NNW,337,2.2,5.3,75,0.00,,,0.00,,2013-01-24 23:02:00,
2013-01-25 00:07:00,46.9,39.7,29.58,NW,315,4.0,4.9,76,0.00,,,0.00,,2013-01-24 23:07:00,
2013-01-25 00:12:00,46.9,39.7,29.58,NW,315,3.1,0.0,76,0.00,,,0.00,,2013-01-24 23:12:00,
2013-01-25 00:17:00,46.9,39.7,29.58,SE,135,4.4,4.9,76,0.00,,,0.00,,2013-01-24 23:17:00,
2013-01-25 00:22:00,46.9,39.7,29.58,NNW,337,2.2,4.4,76,0.00,,,0.00,,2013-01-24 23:22:00,
2013-01-25 00:27:00,46.8,39.6,29.55,North,0,4.0,5.3,76,0.00,,,0.00,,2013-01-24 23:27:00,
2013-01-25 00:32:00,46.6,39.4,29.55,North,0,3.5,5.3,76,0.00,,,0.00,,2013-01-24 23:32:00,
2013-01-25 00:37:00,46.6,39.7,29.55,NNW,337,4.4,4.4,77,0.00,,,0.00,,2013-01-24 23:37:00,
2013-01-25 00:42:00,46.8,39.6,29.55,NW,315,4.9,7.6,76,0.00,,,0.00,,2013-01-24 23:42:00,
2013-01-25 00:47:00,46.8,39.6,29.53,NW,315,6.7,7.6,76,0.00,,,0.00,,2013-01-24 23:47:00,
2013-01-25 00:52:00,46.6,39.4,29.53,NNW,337,4.4,5.8,76,0.00,,,0.00,,2013-01-24 23:52:00,
2013-01-25 00:57:00,46.6,39.7,29.53,NE,45,3.5,4.4,77,0.00,,,0.00,,2013-01-24 23:57:00,
2013-01-25 01:02:00,46.4,39.6,29.53,NW,315,4.9,5.3,77,0.00,,,0.00,,2013-01-25 00:02:00,
2013-01-25 01:07:00,46.4,39.6,29.53,North,0,3.5,4.4,77,0.00,,,0.00,,2013-01-25 00:07:00,
2013-01-25 01:12:00,46.2,39.4,29.53,NW,315,4.4,9.3,77,0.00,,,0.00,,2013-01-25 00:12:00,
2013-01-25 01:17:00,46.2,39.6,29.55,NW,315,4.4,4.4,78,0.00,,,0.00,,2013-01-25 00:17:00,
2013-01-25 01:22:00,46.2,39.6,29.55,North,0,6.7,7.6,78,0.00,,,0.00,,2013-01-25 00:22:00,
2013-01-25 01:27:00,46.2,39.6,29.53,North,0,6.7,10.2,78,0.00,,,0.00,,2013-01-25 00:27:00,
2013-01-25 01:32:00,46.4,39.7,29.53,North,0,6.2,9.3,78,0.00,,,0.00,,2013-01-25 00:32:00,
2013-01-25 01:37:00,46.2,39.6,29.53,SE,135,4.0,0.0,78,0.00,,,0.00,,2013-01-25 00:37:00,
2013-01-25 01:42:00,46.2,39.6,29.53,SE,135,4.4,0.0,78,0.00,,,0.00,,2013-01-25 00:42:00,
2013-01-25 01:47:00,46.0,39.6,29.53,SE,135,6.2,0.0,78,0.00,,,0.00,,2013-01-25 00:47:00,
2013-01-25 01:52:00,46.0,39.6,29.53,NW,315,4.4,4.4,78,0.00,,,0.00,,2013-01-25 00:52:00,
2013-01-25 01:57:00,46.0,39.6,29.53,NW,315,7.6,7.6,78,0.00,,,0.00,,2013-01-25 00:57:00,
2013-01-25 02:02:00,46.0,39.6,29.53,North,0,4.4,4.4,78,0.00,,,0.00,,2013-01-25 01:02:00,
2013-01-25 02:07:00,45.9,39.4,29.50,NW,315,5.3,10.2,78,0.00,,,0.00,,2013-01-25 01:07:00,
2013-01-25 02:12:00,45.9,39.4,29.50,North,0,5.8,5.8,78,0.00,,,0.00,,2013-01-25 01:12:00,
2013-01-25 02:17:00,45.9,39.4,29.53,North,0,5.3,9.3,78,0.00,,,0.00,,2013-01-25 01:17:00,
2013-01-25 02:22:00,45.7,39.4,29.53,NW,315,4.4,4.4,79,0.00,,,0.00,,2013-01-25 01:22:00,
2013-01-25 02:27:00,45.7,39.4,29.53,North,0,2.6,5.3,79,0.00,,,0.00,,2013-01-25 01:27:00,
2013-01-25 02:32:00,45.7,39.4,29.53,North,0,3.1,5.3,79,0.00,,,0.00,,2013-01-25 01:32:00,
2013-01-25 02:37:00,45.5,39.2,29.50,North,0,3.5,5.3,79,0.00,,,0.00,,2013-01-25 01:37:00,
2013-01-25 02:42:00,45.5,39.2,29.50,NW,315,3.1,5.3,79,0.00,,,0.00,,2013-01-25 01:42:00,
2013-01-25 02:52:00,45.3,39.0,29.50,NNW,337,1.7,3.5,79,0.00,,,0.00,,2013-01-25 01:52:00,
2013-01-25 02:57:00,45.3,39.0,29.53,NE,45,3.1,5.3,79,0.00,,,0.00,,2013-01-25 01:57:00,
2013-01-25 03:02:00,45.3,39.4,29.53,NW,315,3.5,3.5,80,0.00,,,0.00,,2013-01-25 02:02:00,
2013-01-25 03:07:00,45.3,39.4,29.53,NW,315,3.5,4.4,80,0.00,,,0.00,,2013-01-25 02:07:00,
2013-01-25 03:12:00,45.1,39.2,29.53,NW,315,4.0,8.9,80,0.00,,,0.00,,2013-01-25 02:12:00,
2013-01-25 03:17:00,45.1,39.2,29.53,North,0,4.4,4.4,80,0.00,,,0.00,,2013-01-25 02:17:00,
2013-01-25 03:22:00,45.1,39.2,29.53,NW,315,3.5,3.5,80,0.00,,,0.00,,2013-01-25 02:22:00,
2013-01-25 03:27:00,45.1,39.2,29.53,North,0,2.2,3.5,80,0.00,,,0.00,,2013-01-25 02:27:00,
2013-01-25 03:32:00,45.1,39.2,29.53,North,0,3.1,4.9,80,0.00,,,0.00,,2013-01-25 02:32:00,
2013-01-25 03:37:00,45.0,39.0,29.53,NW,315,2.6,4.9,80,0.00,,,0.00,,2013-01-25 02:37:00,
2013-01-25 03:42:00,45.0,39.0,29.53,North,0,1.7,5.3,80,0.00,,,0.00,,2013-01-25 02:42:00,
2013-01-25 03:47:00,45.0,39.0,29.53,NW,315,2.2,2.6,80,0.00,,,0.00,,2013-01-25 02:47:00,
2013-01-25 03:52:00,45.0,39.0,29.53,NE,45,2.2,2.6,80,0.00,,,0.00,,2013-01-25 02:52:00,
2013-01-25 03:57:00,44.8,38.8,29.53,North,0,2.2,4.0,80,0.00,,,0.00,,2013-01-25 02:57:00,
2013-01-25 04:02:00,44.8,38.8,29.53,NNE,22,1.7,2.2,80,0.00,,,0.00,,2013-01-25 03:02:00,
2013-01-25 04:07:00,44.6,39.0,29.53,NNE,22,2.6,3.1,81,0.00,,,0.00,,2013-01-25 03:07:00,
2013-01-25 04:12:00,44.4,38.8,29.53,NE,45,3.1,3.1,81,0.00,,,0.00,,2013-01-25 03:12:00,
2013-01-25 04:17:00,44.4,38.8,29.53,North,0,2.6,3.1,81,0.00,,,0.00,,2013-01-25 03:17:00,
2013-01-25 04:22:00,44.2,38.7,29.53,NW,315,2.2,2.2,81,0.00,,,0.00,,2013-01-25 03:22:00,
2013-01-25 04:27:00,44.2,38.7,29.53,NE,45,3.1,3.1,81,0.00,,,0.00,,2013-01-25 03:27:00,
2013-01-25 04:32:00,44.2,39.0,29.53,NE,45,2.6,2.6,82,0.00,,,0.00,,2013-01-25 03:32:00,
2013-01-25 04:37:00,44.2,39.0,29.53,North,0,4.0,0.0,82,0.00,,,0.00,,2013-01-25 03:37:00,
2013-01-25 04:42:00,44.2,39.0,29.53,NW,315,3.1,3.1,82,0.00,,,0.00,,2013-01-25 03:42:00,
2013-01-25 04:47:00,44.2,39.0,29.53,North,0,2.6,2.6,82,0.00,,,0.00,,2013-01-25 03:47:00,
2013-01-25 04:52:00,44.2,39.0,29.53,NNW,337,2.2,5.8,82,0.00,,,0.00,,2013-01-25 03:52:00,
2013-01-25 04:57:00,44.2,39.0,29.50,NNE,22,2.6,4.9,82,0.00,,,0.00,,2013-01-25 03:57:00,
2013-01-25 05:02:00,44.2,39.0,29.50,NE,45,1.7,4.4,82,0.00,,,0.00,,2013-01-25 04:02:00,
2013-01-25 05:07:00,44.2,39.0,29.53,NW,315,3.1,3.1,82,0.00,,,0.00,,2013-01-25 04:07:00,
2013-01-25 05:12:00,44.2,39.0,29.53,North,0,2.6,4.0,82,0.00,,,0.00,,2013-01-25 04:12:00,
2013-01-25 05:17:00,44.1,38.8,29.53,North,0,3.1,5.8,82,0.00,,,0.00,,2013-01-25 04:17:00,
2013-01-25 05:22:00,44.1,38.8,29.53,North,0,4.0,7.6,82,0.00,,,0.00,,2013-01-25 04:22:00,
2013-01-25 05:27:00,44.1,38.8,29.55,NE,45,4.0,8.5,82,0.00,,,0.00,,2013-01-25 04:27:00,
2013-01-25 05:32:00,44.1,38.8,29.55,East,90,4.9,0.0,82,0.00,,,0.00,,2013-01-25 04:32:00,
2013-01-25 05:37:00,44.1,38.8,29.55,NE,45,5.8,7.6,82,0.00,,,0.00,,2013-01-25 04:37:00,
2013-01-25 05:42:00,44.1,38.8,29.55,NE,45,4.9,8.9,82,0.00,,,0.00,,2013-01-25 04:42:00,
2013-01-25 05:47:00,44.1,38.8,29.55,ENE,67,5.3,8.0,82,0.00,,,0.00,,2013-01-25 04:47:00,
2013-01-25 05:52:00,44.1,38.8,29.55,NE,45,4.0,4.4,82,0.00,,,0.00,,2013-01-25 04:52:00,
2013-01-25 05:57:00,44.1,39.2,29.55,West,270,4.0,4.0,83,0.00,,,0.00,,2013-01-25 04:57:00,
2013-01-25 06:02:00,44.1,39.2,29.55,North,0,4.9,9.8,83,0.00,,,0.00,,2013-01-25 05:02:00,
2013-01-25 06:07:00,44.1,39.2,29.58,NNE,22,4.4,5.3,83,0.00,,,0.00,,2013-01-25 05:07:00,
2013-01-25 06:12:00,44.1,39.2,29.58,NE,45,5.3,7.6,83,0.00,,,0.00,,2013-01-25 05:12:00,
2013-01-25 06:17:00,44.2,39.0,29.55,NE,45,6.2,7.6,82,0.00,,,0.00,,2013-01-25 05:17:00,
2013-01-25 06:22:00,44.2,39.0,29.55,NNE,22,5.3,6.2,82,0.00,,,0.00,,2013-01-25 05:22:00,
2013-01-25 06:27:00,44.2,39.0,29.58,NE,45,2.6,5.8,82,0.00,,,0.00,,2013-01-25 05:27:00,
2013-01-25 06:32:00,44.2,39.0,29.58,North,0,3.1,3.1,82,0.00,,,0.00,,2013-01-25 05:32:00,
2013-01-25 06:37:00,44.1,38.8,29.58,NE,45,3.5,3.5,82,0.00,,,0.00,,2013-01-25 05:37:00,
2013-01-25 06:42:00,44.1,39.2,29.58,North,0,4.4,4.4,83,0.00,,,0.00,,2013-01-25 05:42:00,
2013-01-25 06:47:00,43.9,39.0,29.58,NNE,22,4.0,8.5,83,0.00,,,0.00,,2013-01-25 05:47:00,
2013-01-25 06:52:00,43.9,39.0,29.58,NNE,22,3.5,6.2,83,0.00,,,0.00,,2013-01-25 05:52:00,
2013-01-25 07:02:00,44.1,39.2,29.58,NE,45,4.4,4.4,83,0.00,,,0.00,,2013-01-25 06:02:00,
2013-01-25 07:07:00,44.1,39.2,29.55,NE,45,3.1,4.4,83,0.00,,,0.00,,2013-01-25 06:07:00,
2013-01-25 07:12:00,44.1,39.2,29.55,NE,45,4.0,4.9,83,0.00,,,0.00,,2013-01-25 06:12:00,
2013-01-25 07:17:00,43.9,38.7,29.58,NE,45,2.2,2.6,82,0.00,,,0.00,,2013-01-25 06:17:00,
2013-01-25 07:22:00,43.7,38.8,29.58,North,0,1.7,4.9,83,0.00,,,0.00,,2013-01-25 06:22:00,
2013-01-25 07:27:00,43.9,39.0,29.58,North,0,2.6,4.0,83,0.00,,,0.00,,2013-01-25 06:27:00,
2013-01-25 07:32:00,43.9,39.0,29.58,North,0,2.6,4.0,83,0.00,,,0.00,,2013-01-25 06:32:00,
2013-01-25 07:37:00,44.1,39.2,29.58,North,0,1.7,4.9,83,0.00,,,0.00,,2013-01-25 06:37:00,
2013-01-25 07:42:00,44.1,39.2,29.58,North,0,2.2,2.6,83,0.00,,,0.00,,2013-01-25 06:42:00,
2013-01-25 07:47:00,44.2,39.4,29.58,North,0,2.6,2.6,83,0.00,,,0.00,,2013-01-25 06:47:00,
2013-01-25 07:52:00,44.2,39.4,29.58,NE,45,1.7,1.7,83,0.00,,,0.00,,2013-01-25 06:52:00,
2013-01-25 07:57:00,44.2,39.4,29.58,North,0,0.0,0.0,83,0.00,,,0.00,,2013-01-25 06:57:00,
2013-01-25 08:02:00,44.4,39.6,29.58,NNW,337,1.3,2.2,83,0.00,,,0.00,,2013-01-25 07:02:00,
2013-01-25 08:07:00,44.4,39.6,29.58,NW,315,1.3,2.6,83,0.00,,,0.00,,2013-01-25 07:07:00,
2013-01-25 08:12:00,44.6,39.7,29.58,NW,315,1.3,1.3,83,0.00,,,0.00,,2013-01-25 07:12:00,
2013-01-25 09:35:00,48.7,41.4,29.61,NNW,337,3.5,3.5,76,0.00,,,0.00,,2013-01-25 08:35:00,
2013-01-25 09:40:00,48.7,41.4,29.61,NNW,337,3.5,3.5,76,0.00,,,0.00,,2013-01-25 08:40:00,
2013-01-25 09:45:00,48.9,40.8,29.61,North,0,6.2,6.2,74,0.00,,,0.00,,2013-01-25 08:45:00,
2013-01-25 09:50:00,49.3,40.8,29.61,NW,315,3.1,3.1,73,0.00,,,0.00,,2013-01-25 08:50:00,
2013-01-25 09:55:00,49.3,40.5,29.61,North,0,6.2,12.5,72,0.00,,,0.00,,2013-01-25 08:55:00,
2013-01-25 10:00:00,49.6,40.8,29.61,North,0,4.4,4.4,72,0.00,,,0.00,,2013-01-25 09:00:00,
2013-01-25 10:05:00,49.8,40.6,29.61,North,0,4.0,5.8,71,0.00,,,0.00,,2013-01-25 09:05:00,
2013-01-25 10:10:00,50.2,41.4,29.61,NW,315,3.5,3.5,72,0.00,,,0.00,,2013-01-25 09:10:00,
2013-01-25 10:15:00,50.7,41.9,29.61,NW,315,2.2,6.2,72,0.00,,,0.00,,2013-01-25 09:15:00,
2013-01-25 10:20:00,51.1,41.9,29.61,North,0,3.5,4.9,71,0.00,,,0.00,,2013-01-25 09:20:00,
2013-01-25 10:25:00,51.4,41.5,29.61,NE,45,5.3,5.3,69,0.00,,,0.00,,2013-01-25 09:25:00,
2013-01-25 10:30:00,52.0,42.1,29.61,NW,315,3.1,5.3,69,0.00,,,0.00,,2013-01-25 09:30:00,
2013-01-25 10:35:00,52.3,42.1,29.61,NW,315,3.1,5.8,68,0.00,,,0.00,,2013-01-25 09:35:00,
2013-01-25 10:40:00,52.7,41.9,29.61,NW,315,5.3,9.8,67,0.00,,,0.00,,2013-01-25 09:40:00,
2013-01-25 10:45:00,52.9,41.7,29.61,NW,315,4.4,6.2,66,0.00,,,0.00,,2013-01-25 09:45:00,
2013-01-25 10:50:00,52.9,41.4,29.64,NW,315,6.2,12.5,65,0.00,,,0.00,,2013-01-25 09:50:00,
2013-01-25 10:55:00,52.9,41.7,29.64,NW,315,5.8,7.6,66,0.00,,,0.00,,2013-01-25 09:55:00,
2013-01-25 11:00:00,53.2,42.1,29.61,NE,45,4.4,8.5,66,0.00,,,0.00,,2013-01-25 10:00:00,
2013-01-25 11:05:00,53.2,42.1,29.61,NE,45,4.4,8.5,66,0.00,,,0.00,,2013-01-25 10:05:00,
2013-01-25 11:15:00,53.6,42.1,29.64,NW,315,5.3,10.2,65,0.00,,,0.00,,2013-01-25 10:15:00,
2013-01-25 11:20:00,53.8,41.7,29.61,NNW,337,4.9,10.2,64,0.00,,,0.00,,2013-01-25 10:20:00,
2013-01-25 11:25:00,54.0,41.9,29.61,NW,315,7.6,0.0,64,0.00,,,0.00,,2013-01-25 10:25:00,
2013-01-25 11:30:00,54.1,41.7,29.61,NE,45,8.5,8.5,63,0.00,,,0.00,,2013-01-25 10:30:00,
2013-01-25 11:40:00,54.5,41.7,29.61,NNW,337,8.0,8.9,62,0.00,,,0.00,,2013-01-25 10:40:00,
2013-01-25 11:45:00,54.5,41.7,29.61,NW,315,7.1,10.7,62,0.00,,,0.00,,2013-01-25 10:45:00,
2013-01-25 11:50:00,54.5,41.7,29.61,NW,315,8.9,10.7,62,0.00,,,0.00,,2013-01-25 10:50:00,
2013-01-25 11:55:00,54.5,42.1,29.61,NNW,337,7.6,13.4,63,0.00,,,0.00,,2013-01-25 10:55:00,
2013-01-25 12:00:00,54.3,41.5,29.58,NW,315,10.7,10.7,62,0.00,,,0.00,,2013-01-25 11:00:00,
2013-01-25 12:05:00,54.5,42.1,29.58,NW,315,7.1,13.4,63,0.00,,,0.00,,2013-01-25 11:05:00,
2013-01-25 12:10:00,54.9,42.4,29.58,North,0,6.7,6.7,63,0.00,,,0.00,,2013-01-25 11:10:00,
2013-01-25 12:15:00,54.9,41.9,29.58,NW,315,9.3,9.3,62,0.00,,,0.00,,2013-01-25 11:15:00,
2013-01-25 12:20:00,55.2,42.8,29.61,NW,315,4.9,7.6,63,0.00,,,0.00,,2013-01-25 11:20:00,
2013-01-25 12:25:00,55.2,42.8,29.61,WNW,292,6.2,6.2,63,0.00,,,0.00,,2013-01-25 11:25:00,
2013-01-25 12:30:00,55.4,42.4,29.61,NW,315,7.6,7.6,62,0.00,,,0.00,,2013-01-25 11:30:00,
2013-01-25 12:35:00,55.4,43.0,29.64,NE,45,6.2,9.3,63,0.00,,,0.00,,2013-01-25 11:35:00,
2013-01-25 12:40:00,55.2,41.9,29.64,NW,315,10.7,12.5,61,0.00,,,0.00,,2013-01-25 11:40:00,
2013-01-25 12:45:00,55.2,41.5,29.64,NNW,337,8.9,11.1,60,0.00,,,0.00,,2013-01-25 11:45:00,
2013-01-25 12:50:00,55.4,42.1,29.61,NW,315,8.5,8.5,61,0.00,,,0.00,,2013-01-25 11:50:00,
2013-01-25 12:55:00,55.4,42.1,29.61,NW,315,8.9,8.9,61,0.00,,,0.00,,2013-01-25 11:55:00,
2013-01-25 13:00:00,55.4,42.1,29.61,North,0,8.5,10.7,61,0.00,,,0.00,,2013-01-25 12:00:00,
2013-01-25 13:05:00,55.6,42.3,29.61,WNW,292,7.6,17.0,61,0.00,,,0.00,,2013-01-25 12:05:00,
2013-01-25 13:15:00,55.6,42.3,29.58,NW,315,4.4,9.8,61,0.00,,,0.00,,2013-01-25 12:15:00,
2013-01-25 13:20:00,55.8,41.9,29.61,North,0,7.1,10.2,60,0.00,,,0.00,,2013-01-25 12:20:00,
2013-01-25 13:25:00,55.4,41.2,29.61,NW,315,8.5,9.3,59,0.00,,,0.00,,2013-01-25 12:25:00,
2013-01-25 13:30:00,55.6,41.4,29.58,North,0,9.3,12.9,59,0.00,,,0.00,,2013-01-25 12:30:00,
2013-01-25 13:35:00,55.6,41.9,29.58,NW,315,7.1,12.9,60,0.00,,,0.00,,2013-01-25 12:35:00,
2013-01-25 13:40:00,55.6,41.4,29.58,NW,315,7.6,12.9,59,0.00,,,0.00,,2013-01-25 12:40:00,
2013-01-25 13:45:00,55.9,42.1,29.58,North,0,5.3,11.1,60,0.00,,,0.00,,2013-01-25 12:45:00,
2013-01-25 13:50:00,55.9,41.7,29.58,NW,315,8.5,15.6,59,0.00,,,0.00,,2013-01-25 12:50:00,
2013-01-25 13:55:00,55.8,41.5,29.58,NW,315,8.0,12.0,59,0.00,,,0.00,,2013-01-25 12:55:00,
2013-01-25 14:00:00,55.8,41.9,29.58,NW,315,10.2,16.5,60,0.00,,,0.00,,2013-01-25 13:00:00,
2013-01-25 14:05:00,55.9,41.7,29.58,NW,315,7.6,16.5,59,0.00,,,0.00,,2013-01-25 13:05:00,
2013-01-25 14:10:00,56.1,41.9,29.58,North,0,8.5,8.5,59,0.00,,,0.00,,2013-01-25 13:10:00,
2013-01-25 14:20:00,55.9,41.4,29.61,NW,315,10.2,11.6,58,0.00,,,0.00,,2013-01-25 13:20:00,
2013-01-25 14:25:00,56.1,41.4,29.61,NW,315,8.0,11.6,58,0.00,,,0.00,,2013-01-25 13:25:00,
2013-01-25 14:30:00,56.1,41.4,29.58,NW,315,5.8,9.3,58,0.00,,,0.00,,2013-01-25 13:30:00,
2013-01-25 14:35:00,56.3,41.5,29.61,NW,315,6.2,8.9,58,0.00,,,0.00,,2013-01-25 13:35:00,
2013-01-25 14:40:00,55.8,41.2,29.61,NW,315,11.1,13.4,58,0.00,,,0.00,,2013-01-25 13:40:00,
2013-01-25 14:45:00,55.4,40.3,29.61,West,270,13.4,18.7,57,0.00,,,0.00,,2013-01-25 13:45:00,
2013-01-25 14:50:00,55.6,41.0,29.61,WNW,292,7.6,7.6,58,0.00,,,0.00,,2013-01-25 13:50:00,
2013-01-25 14:55:00,55.8,41.2,29.61,NNW,337,6.7,8.5,58,0.00,,,0.00,,2013-01-25 13:55:00,
2013-01-25 15:00:00,55.4,40.8,29.61,NW,315,10.2,12.9,58,0.00,,,0.00,,2013-01-25 14:00:00,
2013-01-25 15:05:00,55.4,40.8,29.61,NW,315,6.7,14.3,58,0.00,,,0.00,,2013-01-25 14:05:00,
2013-01-25 15:10:00,55.4,40.8,29.61,NW,315,6.2,21.4,58,0.00,,,0.00,,2013-01-25 14:10:00,
2013-01-25 15:15:00,55.2,41.0,29.61,NW,315,9.8,12.5,59,0.00,,,0.00,,2013-01-25 14:15:00,
2013-01-25 15:20:00,55.2,40.6,29.61,NW,315,8.0,8.0,58,0.00,,,0.00,,2013-01-25 14:20:00,
2013-01-25 15:25:00,55.2,41.0,29.61,NW,315,8.0,14.3,59,0.00,,,0.00,,2013-01-25 14:25:00,
2013-01-25 15:30:00,55.2,41.0,29.64,NW,315,8.5,14.3,59,0.00,,,0.00,,2013-01-25 14:30:00,
2013-01-25 15:35:00,55.2,40.6,29.61,NNW,337,8.5,15.2,58,0.00,,,0.00,,2013-01-25 14:35:00,
2013-01-25 15:40:00,55.2,40.6,29.61,North,0,8.0,8.5,58,0.00,,,0.00,,2013-01-25 14:40:00,
2013-01-25 15:45:00,55.2,41.0,29.61,North,0,6.2,8.5,59,0.00,,,0.00,,2013-01-25 14:45:00,
2013-01-25 15:50:00,55.2,40.6,29.64,North,0,4.4,9.8,58,0.00,,,0.00,,2013-01-25 14:50:00,
2013-01-25 15:55:00,55.0,40.5,29.64,NW,315,8.0,11.6,58,0.00,,,0.00,,2013-01-25 14:55:00,
2013-01-25 16:00:00,55.0,40.5,29.61,NW,315,6.2,12.0,58,0.00,,,0.00,,2013-01-25 15:00:00,
2013-01-25 16:05:00,55.0,40.5,29.61,NW,315,7.6,12.0,58,0.00,,,0.00,,2013-01-25 15:05:00,
2013-01-25 16:10:00,54.9,39.7,29.64,NW,315,6.7,12.0,57,0.00,,,0.00,,2013-01-25 15:10:00,
2013-01-25 16:15:00,54.7,40.1,29.64,North,0,5.8,5.8,58,0.00,,,0.00,,2013-01-25 15:15:00,
2013-01-25 16:20:00,54.9,40.3,29.64,NW,315,4.4,11.1,58,0.00,,,0.00,,2013-01-25 15:20:00,
2013-01-25 16:25:00,54.7,40.1,29.64,NW,315,5.3,11.1,58,0.00,,,0.00,,2013-01-25 15:25:00,
2013-01-25 16:30:00,54.7,40.1,29.64,East,90,8.5,11.1,58,0.00,,,0.00,,2013-01-25 15:30:00,
2013-01-25 16:35:00,54.5,39.9,29.64,NNW,337,5.8,5.8,58,0.00,,,0.00,,2013-01-25 15:35:00,
2013-01-25 16:40:00,54.3,39.7,29.64,NW,315,6.2,6.2,58,0.00,,,0.00,,2013-01-25 15:40:00,
2013-01-25 16:45:00,54.1,39.6,29.64,NW,315,6.2,6.2,58,0.00,,,0.00,,2013-01-25 15:45:00,
2013-01-25 16:50:00,54.0,39.9,29.64,NE,45,5.3,9.8,59,0.00,,,0.00,,2013-01-25 15:50:00,
2013-01-25 16:55:00,53.8,39.7,29.64,NW,315,7.1,7.1,59,0.00,,,0.00,,2013-01-25 15:55:00,
2013-01-25 17:00:00,53.4,39.4,29.64,North,0,8.9,12.5,59,0.00,,,0.00,,2013-01-25 16:00:00,
2013-01-25 17:05:00,53.2,39.6,29.64,North,0,6.7,6.7,60,0.00,,,0.00,,2013-01-25 16:05:00,
2013-01-25 17:10:00,52.9,39.7,29.64,West,270,6.7,6.7,61,0.00,,,0.00,,2013-01-25 16:10:00,
2013-01-25 17:15:00,52.5,39.4,29.64,NW,315,6.2,7.6,61,0.00,,,0.00,,2013-01-25 16:15:00,
2013-01-25 17:20:00,52.3,39.6,29.64,North,0,5.8,9.3,62,0.00,,,0.00,,2013-01-25 16:20:00,
2013-01-25 17:25:00,52.0,39.2,29.64,North,0,5.8,9.3,62,0.00,,,0.00,,2013-01-25 16:25:00,
2013-01-25 17:30:00,51.6,38.8,29.64,NW,315,8.0,0.0,62,0.00,,,0.00,,2013-01-25 16:30:00,
2013-01-25 17:35:00,51.4,38.8,29.64,NW,315,6.2,0.0,62,0.00,,,0.00,,2013-01-25 16:35:00,
2013-01-25 17:40:00,51.3,38.7,29.64,NW,315,6.7,0.0,62,0.00,,,0.00,,2013-01-25 16:40:00,
2013-01-25 17:50:00,51.1,38.5,29.64,NW,315,6.2,0.0,62,0.00,,,0.00,,2013-01-25 16:50:00,
2013-01-25 17:55:00,50.9,38.7,29.67,North,0,5.8,5.8,63,0.00,,,0.00,,2013-01-25 16:55:00,
2013-01-25 18:00:00,50.7,38.5,29.67,North,0,3.5,4.9,63,0.00,,,0.00,,2013-01-25 17:00:00,
2013-01-25 18:10:00,50.5,38.3,29.67,North,0,5.3,9.8,63,0.00,,,0.00,,2013-01-25 17:10:00,
2013-01-25 18:15:00,50.4,38.1,29.67,North,0,3.5,12.5,63,0.00,,,0.00,,2013-01-25 17:15:00,
2013-01-25 18:20:00,50.4,37.8,29.67,NW,315,4.9,8.9,62,0.00,,,0.00,,2013-01-25 17:20:00,
2013-01-25 18:25:00,50.2,37.6,29.70,North,0,4.4,4.9,62,0.00,,,0.00,,2013-01-25 17:25:00,
2013-01-25 18:30:00,50.2,37.6,29.70,NW,315,4.0,8.0,62,-99.99,,,0.00,,2013-01-25 17:30:00,
2013-01-25 18:35:00,50.2,37.6,29.67,North,0,5.8,0.0,62,-99.99,,,0.00,,2013-01-25 17:35:00,
2013-01-25 18:40:00,50.0,37.4,29.67,North,0,4.4,0.0,62,-99.99,,,0.00,,2013-01-25 17:40:00,
2013-01-25 18:45:00,50.0,37.4,29.67,NW,315,4.0,8.0,62,-99.99,,,0.00,,2013-01-25 17:45:00,
2013-01-25 18:50:00,49.8,37.2,29.70,North,0,4.4,5.3,62,-99.99,,,0.00,,2013-01-25 17:50:00,
2013-01-25 18:55:00,49.6,37.0,29.67,NW,315,4.0,8.5,62,-99.99,,,0.00,,2013-01-25 17:55:00,
2013-01-25 19:00:00,49.8,37.2,29.67,NNW,337,5.3,5.8,62,-99.99,,,0.00,,2013-01-25 18:00:00,
2013-01-25 19:05:00,49.6,36.7,29.67,NE,45,4.4,8.0,61,-99.99,,,0.00,,2013-01-25 18:05:00,
2013-01-25 19:10:00,49.6,36.7,29.67,North,0,6.7,10.2,61,-99.99,,,0.00,,2013-01-25 18:10:00,
2013-01-25 19:15:00,49.8,36.9,29.67,North,0,5.3,12.0,61,-99.99,,,0.00,,2013-01-25 18:15:00,
2013-01-25 19:20:00,49.6,36.7,29.70,NNW,337,4.4,4.9,61,-99.99,,,0.00,,2013-01-25 18:20:00,
2013-01-25 19:25:00,49.5,36.5,29.70,NW,315,7.1,12.5,61,-99.99,,,0.00,,2013-01-25 18:25:00,
2013-01-25 19:30:00,49.5,36.5,29.70,North,0,5.3,7.6,61,-99.99,,,0.00,,2013-01-25 18:30:00,
2013-01-25 19:35:00,49.3,36.3,29.70,North,0,7.1,7.1,61,-99.99,,,0.00,,2013-01-25 18:35:00,
2013-01-25 19:40:00,49.1,36.1,29.70,North,0,4.4,8.9,61,-99.99,,,0.00,,2013-01-25 18:40:00,
2013-01-25 19:45:00,48.9,36.3,29.70,NW,315,6.2,0.0,62,-99.99,,,0.00,,2013-01-25 18:45:00,
2013-01-25 19:50:00,48.7,36.1,29.70,NW,315,4.9,4.9,62,-99.99,,,0.00,,2013-01-25 18:50:00,
2013-01-25 19:55:00,48.6,36.0,29.73,North,0,4.9,5.8,62,-99.99,,,0.00,,2013-01-25 18:55:00,
2013-01-25 20:00:00,48.4,35.8,29.73,NW,315,5.8,8.5,62,-99.99,,,0.00,,2013-01-25 19:00:00,
2013-01-25 20:05:00,48.4,35.8,29.76,North,0,6.2,12.5,62,-99.99,,,0.00,,2013-01-25 19:05:00,
2013-01-25 20:10:00,48.2,35.8,29.76,North,0,5.8,5.8,62,-99.99,,,0.00,,2013-01-25 19:10:00,
2013-01-25 20:15:00,48.2,35.8,29.76,East,90,8.0,13.4,62,-99.99,,,0.00,,2013-01-25 19:15:00,
2013-01-25 20:20:00,48.0,36.0,29.73,East,90,8.5,13.4,63,-99.99,,,0.00,,2013-01-25 19:20:00,
2013-01-25 20:25:00,48.0,35.6,29.73,North,0,8.5,11.1,62,-99.99,,,0.00,,2013-01-25 19:25:00,
2013-01-25 20:30:00,48.0,35.6,29.73,North,0,5.3,8.5,62,-99.99,,,0.00,,2013-01-25 19:30:00,
2013-01-25 20:35:00,47.8,35.8,29.73,North,0,7.1,0.0,63,-99.99,,,0.00,,2013-01-25 19:35:00,
2013-01-25 20:40:00,47.8,35.8,29.73,NNW,337,6.2,6.2,63,-99.99,,,0.00,,2013-01-25 19:40:00,
2013-01-25 20:45:00,47.7,35.6,29.73,North,0,7.6,14.3,63,-99.99,,,0.00,,2013-01-25 19:45:00,
2013-01-25 20:50:00,47.7,35.6,29.73,NW,315,4.4,10.7,63,-99.99,,,0.00,,2013-01-25 19:50:00,
2013-01-25 20:55:00,47.7,35.6,29.76,NNW,337,5.3,5.3,63,-99.99,,,0.00,,2013-01-25 19:55:00,
2013-01-25 21:00:00,47.7,35.6,29.76,NNW,337,7.1,8.0,63,-99.99,,,0.00,,2013-01-25 20:00:00,
2013-01-25 21:05:00,47.7,35.6,29.76,NNW,337,6.2,8.5,63,-99.99,,,0.00,,2013-01-25 20:05:00,
2013-01-25 21:10:00,47.5,35.4,29.76,West,270,6.2,6.2,63,-99.99,,,0.00,,2013-01-25 20:10:00,
2013-01-25 21:15:00,47.3,35.2,29.76,NW,315,6.2,11.1,63,-99.99,,,0.00,,2013-01-25 20:15:00,
2013-01-25 21:20:00,47.3,35.6,29.76,NW,315,5.8,5.8,64,-99.99,,,0.00,,2013-01-25 20:20:00,
2013-01-25 21:25:00,47.1,35.4,29.73,North,0,5.8,8.0,64,-99.99,,,0.00,,2013-01-25 20:25:00,
2013-01-25 21:30:00,47.1,35.4,29.73,NW,315,5.3,9.3,64,-99.99,,,0.00,,2013-01-25 20:30:00,
2013-01-25 21:35:00,47.1,35.4,29.76,North,0,6.7,8.0,64,-99.99,,,0.00,,2013-01-25 20:35:00,
2013-01-25 21:40:00,47.1,35.4,29.76,North,0,5.3,10.7,64,-99.99,,,0.00,,2013-01-25 20:40:00,
2013-01-25 21:45:00,47.1,35.4,29.76,NW,315,4.9,11.1,64,-99.99,,,0.00,,2013-01-25 20:45:00,
2013-01-25 21:50:00,47.3,35.2,29.73,NNW,337,6.2,12.9,63,-99.99,,,0.00,,2013-01-25 20:50:00,
2013-01-25 21:55:00,47.5,35.4,29.73,North,0,5.3,5.8,63,-99.99,,,0.00,,2013-01-25 20:55:00,
2013-01-25 22:00:00,47.5,35.4,29.73,North,0,5.3,12.9,63,-99.99,,,0.00,,2013-01-25 21:00:00,
2013-01-25 22:05:00,47.5,35.4,29.73,North,0,4.4,6.2,63,0.00,,,0.00,,2013-01-25 21:05:00,
2013-01-25 22:10:00,47.5,35.4,29.73,NNW,337,6.2,8.9,63,0.00,,,0.00,,2013-01-25 21:10:00,
2013-01-25 22:15:00,47.3,35.2,29.73,North,0,5.8,6.2,63,0.00,,,0.00,,2013-01-25 21:15:00,
2013-01-25 22:20:00,47.3,35.2,29.73,NW,315,4.0,4.4,63,0.00,,,0.00,,2013-01-25 21:20:00,
2013-01-25 22:25:00,47.3,35.2,29.73,North,0,4.9,7.6,63,0.00,,,0.00,,2013-01-25 21:25:00,
2013-01-25 22:30:00,47.1,35.4,29.73,NW,315,4.9,4.9,64,0.00,,,0.00,,2013-01-25 21:30:00,
2013-01-25 22:35:00,46.9,35.2,29.73,NW,315,3.5,5.3,64,0.00,,,0.00,,2013-01-25 21:35:00,
2013-01-25 22:40:00,46.9,35.2,29.73,NNE,22,4.0,5.8,64,0.00,,,0.00,,2013-01-25 21:40:00,
2013-01-25 22:45:00,46.8,35.6,29.73,NE,45,4.4,9.3,65,0.00,,,0.00,,2013-01-25 21:45:00,
2013-01-25 22:50:00,46.8,35.6,29.73,NE,45,3.5,9.3,65,0.00,,,0.00,,2013-01-25 21:50:00,
2013-01-25 22:55:00,46.8,35.6,29.73,West,270,3.1,4.0,65,0.00,,,0.00,,2013-01-25 21:55:00,
2013-01-25 23:00:00,46.8,35.6,29.73,North,0,4.4,6.2,65,0.00,,,0.00,,2013-01-25 22:00:00,
2013-01-25 23:05:00,46.8,35.6,29.76,NE,45,4.4,8.0,65,0.00,,,0.00,,2013-01-25 22:05:00,
2013-01-25 23:10:00,46.8,35.6,29.76,North,0,4.9,5.3,65,0.00,,,0.00,,2013-01-25 22:10:00,
2013-01-25 23:15:00,46.8,35.6,29.76,West,270,4.9,4.9,65,0.00,,,0.00,,2013-01-25 22:15:00,
2013-01-25 23:20:00,46.8,35.6,29.76,North,0,4.4,4.9,65,0.00,,,0.00,,2013-01-25 22:20:00,
2013-01-25 23:25:00,46.8,35.1,29.73,North,0,3.5,3.5,64,0.00,,,0.00,,2013-01-25 22:25:00,
2013-01-25 23:30:00,46.8,35.6,29.73,North,0,4.0,8.9,65,0.00,,,0.00,,2013-01-25 22:30:00,
2013-01-25 23:35:00,46.8,35.6,29.76,North,0,4.4,0.0,65,0.00,,,0.00,,2013-01-25 22:35:00,
2013-01-25 23:40:00,46.6,35.4,29.76,NW,315,4.4,7.6,65,0.00,,,0.00,,2013-01-25 22:40:00,
2013-01-25 23:45:00,46.6,35.4,29.76,NE,45,4.0,4.4,65,0.00,,,0.00,,2013-01-25 22:45:00,
2013-01-25 23:50:00,46.6,35.4,29.76,WNW,292,5.8,8.9,65,0.00,,,0.00,,2013-01-25 22:50:00,
2013-01-25 23:55:00,46.6,35.4,29.76,NW,315,2.6,2.6,65,0.00,,,0.00,,2013-01-25 22:55:00,